STARLINK-11527, 62523

Orbit data source: Space-Track

STARLINK-11527, 62523 is a payload satellite owned by SpaceX/Seattle (US) in LEO that was launched on Wed, 08 Jan 2025 UTC via an FALCON 9 launch vehicle from the Air Force Eastern Test Range (AFETR). Payloads include a variety of satellites, spacecraft, and rockets equipped with specific instruments for various scientific and technological missions. These include communications satellites like Starlink; space stations such as the ISS; scientific satellites like the Hubble; Earth observation satellites from companies like Planet Labs, Umbra, and HawkEye 360; GPS; miniature CubeSats for education and research; and military/defense satellites.

Loading next visibility...
STARLINK-11527 details
Identifier
62523, 2025-004N
Orbit
LEO
Last TLE update11 hours ago
Origin
Flag of USSpaceX/Seattle (US)
ManufacturerSpaceX/Seattle
MissionOperational spacecraft
Bus & MotorSTARLINK V2M, Unknown motor
Mass730 kg wet, ~700 kg dry
Launch date (UTC)
2025-01-08 (1 month ago)
Launch vehicle
FALCON 9
Launch site
Air Force Eastern Test Range (AFETR)
Object type
Payload
Rocket body
Debris
Shape & HBRUnknown
Radar Cross SectionLarge (>1 m²)

Expand to show TLE details & history

TLE from 11 hours ago
0 STARLINK-11527
1 62523U 25004N   25035.83335648 -.00036870  00000-0 -20961-3 0  9991
2 62523  43.0000 309.3455 0001387 271.6784 353.2905 15.77889156  5548
Epoch: 2025-02-04T20:00Z
Definitive object data (Epoch: 2025-02-04T20:00:01.999Z)
Latitude-42.95616°
Longitude137.25117°
Altitude348.724 km
Speed7.701 km/s
True Right ascension14h 09m 58s
True Declination-42° 46' 27"
Sunlit
Object was in daylight at TLE epoch
Visualization TLE readout
Latitude-7.11277°
Longitude-136.33317°
Altitude337.236 km
Speed7.708 km/s
Apparent Right ascension20h 23m 37s
Apparent Declination-23° 09' 53"
Sunlit
Object is in daylight
Visualization observer readout
Local Sidereal Time09:01:47
Azimuth28.555° NE
Elevation-71.407°
Doppler factor1
Orbital elements
Apogee altitude339.341 km
Perigee altitude337.478 km
Semi-major axis6,716.547 km
Eccentricity0.0001387
Inclination43°
RAAN309.3455°
Arg. of periapsis271.6784°
True anomaly353.28864°
Mean anomaly353.2905°
Eccentric anomaly353.28957°
Mean motion3.94298 °/min
BSTAR-0.00020961
Orbital period91.3 mins
Loading maneuver chart data...
Loading historical data...
Loading historical data...
Loading historical data...
Loading historical data...
Loading historical data...
Loading historical data...
Loading historical data...

STARLINK-11527 Visibility forecast

Observer location: undefined°, undefined

Span
Click to sort rows by Start time (UTC) header in descending order
Start Az.
Max El. time (UTC)
Max El. Az.
Max El.
End time (UTC)
End Az.
4 mins2025-02-05 20:54:31.930Z196.271° SSW2025-02-05 20:56:31.930Z147.607° SSE19.149°2025-02-05 20:58:31.930Z99.338° ESE
4 mins2025-02-05 22:30:31.930Z260.419° W2025-02-05 22:31:31.930Z276.122° WNW40.343°2025-02-05 22:34:31.930Z69.918° E
|